Terminal Aerodrome Forecast
Issued by NWS Chicago, IL

Home | Current Version | Previous Version | Text Only | Print | Product List | Glossary On
Versions: 1 2 3 4 5 6 7 8 9 10 11 12 13 14 15 16 17 18 19 20 21 22 23 24 25 26 27 28 29 30 31 32
000
FTUS43 KLOT 221400 AAA
TAFRFD
TAF AMD
KRFD 221400Z 2214/2312 15010KT 5SM BR SCT040 OVC080
     FM221600 13011KT 5SM -RASN BR SCT025 OVC035
     FM221800 12012KT 5SM -RA BR OVC015
     FM222100 11013KT 3SM RA BR OVC007
     FM230300 12013KT 2SM -DZRA BR OVC004=

USA.gov is the U.S. government's official web portal to all federal, state and local government web resources and services.